Location: Del Amo
(33.8464°N, 118.2104°W)
Time: 01:56:55
(UTC+00:00)

SR - Pass Details

Date: 26 September 2024
Orbit: 578 x 855 km, 66.7° (Epoch: 06 October)

Event Time Altitude Azimuth Distance (km) Brightness Sun altitude
Rises 18:41:09 0° 236° (SW) 2,805 ? 51.5°
Reaches altitude 10° 18:43:47 10° 251° (WSW) 1,892 ? 51.8°
Maximum altitude 18:47:07 22° 304° (NW) 1,267 ? 52.1°
Drops below altitude 10° 18:50:28 10° 357° (N) 1,900 ? 52.3°
Sets 18:53:07 0° 12° (NNE) 2,820 ? 52.5°
